This demonstration page uses our WeatherBlox Daily Observations layout. Learn more.

Left ArrowRight Arrow

34.74481, -87.66753

Hourly Observations for January 31, 2020

Temp ( °F °C ) Dew Point ( °F °C ) Humidity (%) Winds ( mph kmh ) Pressure ( in mb ) Visibility ( mi km ) Precip ( " mm )
12:53 am 00:53 Cloudy 45 7.2 42 5.6 90 90 Calm 30.09 1019 9 14 0.00 0.00
1:53 am 01:53 Cloudy 45 7.2 42 5.6 90 90 Calm 30.09 1019 10 16 0.00 0.00
2:53 am 02:53 Cloudy 45 7.2 42 5.6 90 90 Calm 30.09 1019 9 14 0.00 0.00
3:53 am 03:53 Cloudy 46 7.8 42 5.6 86 86 ESE 7 11 30.08 1019 10 16 0.00 0.00
4:53 am 04:53 Partly Cloudy 47 8.3 41 5 80 80 SE 5 7 30.05 1018 10 16 0.00 0.00
5:53 am 05:53 Mostly Cloudy 47 8.3 40 4.4 77 77 Calm 30.07 1018 10 16 0.00 0.00
6:53 am 06:53 Cloudy 48 8.9 41 5 77 77 ESE 3 6 30.09 1019 10 16 0.00 0.00
7:53 am 07:53 Cloudy 48 8.9 44 6.7 86 86 E 5 7 30.11 1020 10 16 0.00 0.00
8:53 am 08:53 Cloudy 50 10 42 5.6 74 74 Calm 30.12 1020 10 16 0.00 0.00
9:53 am 09:53 Cloudy 52 11.1 43 6.1 72 72 SE 6 9 30.13 1020 10 16 0.00 0.00
10:53 am 10:53 Cloudy 53 11.7 42 5.6 66 66 S 7 11 30.13 1020 10 16 0.00 0.00
11:07 am 11:07 Cloudy 53 11.7 42 5.6 66 66 S 7 11 30.13 1020 10 16 0.00 0.00
11:53 am 11:53 Cloudy 53 11.7 41 5 64 64 S 6 9 30.11 1020 10 16 0.00 0.00
12:53 pm 12:53 Cloudy 53 11.7 41 5 64 64 Calm 30.09 1019 10 16 0.00 0.00
1:53 pm 13:53 Cloudy 54 12.2 42 5.6 64 64 Calm 30.06 1018 10 16 0.00 0.00
2:53 pm 14:53 Cloudy 54 12.2 42 5.6 64 64 ESE 3 6 30.06 1018 10 16 0.00 0.00
3:53 pm 15:53 Cloudy 54 12.2 42 5.6 64 64 ESE 5 7 30.05 1018 10 16 0.00 0.00
4:53 pm 16:53 Cloudy 53 11.7 43 6.1 69 69 Calm 30.06 1018 10 16 0.00 0.00
5:51 pm 17:51 Cloudy 52 11 45 7 77 77 E 3 6 30.07 1018 10 16 0.00 0.00
5:53 pm 17:53 Cloudy 51 10.6 43 6.1 74 74 E 3 6 30.06 1018 10 16 0.00 0.00
6:13 pm 18:13 Cloudy 51 10.6 44 6.7 77 77 E 3 6 30.08 1019 10 16 0.00 0.00
6:53 pm 18:53 Cloudy 51 10.6 43 6.1 74 74 ESE 3 6 30.06 1018 10 16 0.00 0.00
7:53 pm 19:53 Cloudy 51 10.6 43 6.1 74 74 Calm 30.07 1018 10 16 0.00 0.00
8:53 pm 20:53 Cloudy 51 10.6 43 6.1 74 74 ENE 3 6 30.09 1019 10 16 0.00 0.00
9:53 pm 21:53 Cloudy 50 10 42 5.6 74 74 Calm 30.09 1019 10 16 0.00 0.00
10:53 pm 22:53 Cloudy 49 9.4 43 6.1 80 80 SSE 3 6 30.08 1019 10 16 0.00 0.00
11:53 pm 23:53 Cloudy 49 9.4 43 6.1 80 80 SSE 3 6 30.07 1018 10 16 0.00 0.00

Powered by AerisWeather